Location: Babu�nica
(43.0680°N, 22.4115°E)
Time: 05:24:42
(UTC+00:00)

Daily predictions for brighter satellites

Satellite Brightness Start Highest point End
(mag) Time Altitude Azimuth Time Altitude Azimuth Time Altitude Azimuth
SL-16 R/B 4.2 00:12:20 25° NNW 00:12:20 25° NNW 00:14:41 10° NNW
ATLAS 5 CENTAUR R/B 4.5 00:26:24 14° NNE 00:26:24 14° NNE 00:27:13 10° NNE
CZ-2D R/B 4.1 00:18:50 10° NNE 00:20:45 23° N 00:20:45 23° N
Cosmos 2297 Rocket 4.4 00:27:34 10° NNW 00:28:49 17° NNW 00:28:49 17° NNW
Resurs 1-4 Rocket 4.1 00:32:57 10° N 00:34:54 23° N 00:34:54 23° N
Cosmos 1697 Rocket 3.9 00:50:48 38° ENE 00:50:48 38° ENE 00:54:53 10° NE
Cosmos 1980 Rocket 3.9 00:53:31 25° ESE 00:53:53 25° ESE 00:58:25 10° NE
USA 267 3.3 00:49:11 10° NE 00:54:57 71° NE 00:54:57 71° NE
Cosmos 1821 Rocket 4.3 01:04:35 10° N 01:10:50 61° E 01:11:55 53° ESE
Cosmos 1656 4.4 01:30:38 41° NNW 01:30:38 41° NNW 01:34:44 10° NNE
USA 234 3.5 01:23:32 10° ESE 01:29:59 68° NE 01:36:29 10° NW
Cosmos 2227 Rocket 4.4 01:24:37 10° NNW 01:25:13 13° NNW 01:25:13 13° NNW
Cosmos 1777 Rocket 4.4 01:25:20 10° NNW 01:30:32 62° ENE 01:32:21 39° SE
Lacrosse 5 2.2 01:32:48 63° NE 01:32:48 63° NE 01:37:03 10° NE
Cosmos 1782 4.2 01:34:33 38° NE 01:34:33 38° NE 01:37:25 10° NNE
Nadezhda 3 Rocket 3.8 01:33:54 81° SSW 01:34:13 88° W 01:40:24 10° N
Meteor 1-20 Rocket 4.1 01:31:31 10° N 01:36:41 79° N 01:36:41 79° N
Cosmos 1515 Rocket 4.2 01:37:58 54° ENE 01:37:58 54° ENE 01:41:51 10° NNE
Cosmos 972 Rocket 4.0 01:40:30 69° NNE 01:40:30 69° NNE 01:44:47 10° NNE
ADEOS II 3.1 01:35:03 10° N 01:38:28 34° NNW 01:38:28 34° NNW
CZ-2C R/B 4.0 01:40:05 10° NNE 01:43:09 40° ENE 01:43:09 40° ENE
Cosmos 44 3.9 01:46:22 43° ESE 01:46:29 43° ESE 01:50:50 10° NE
MSX 4.2 01:41:23 10° NNE 01:47:08 62° ESE 01:49:37 34° S
Cosmos 2278 3.8 01:46:14 60° S 01:47:12 74° ESE 01:52:55 10° NNE
IDEFIX/ARIANE 42P 2.4 01:47:52 10° NNE 01:53:10 84° WNW 01:53:41 73° SW
Cosmos 2369 3.6 01:54:43 64° W 01:55:05 66° WNW 02:00:49 10° NNE
Cosmos 2228 Rocket 4.0 01:53:40 30° SE 01:55:19 45° E 01:59:31 10° NNE
Cosmos 1933 Rocket 3.6 01:52:40 10° N 01:57:03 76° E 01:57:15 74° ESE
Cosmos 1151 Rocket 4.4 02:00:38 27° NNW 02:00:38 27° NNW 02:02:59 10° N
ARIANE 5 R/B 2.7 01:57:10 10° N 02:01:51 51° WNW 02:01:51 51° WNW
CZ-2D R/B 4.3 02:01:16 10° NNW 02:02:04 11° NW 02:02:04 11° NW
RUBIN 8/PSLV 4.5 02:04:09 10° N 02:08:38 76° WNW 02:08:56 72° WSW
ATLAS 5 CENTAUR R/B 4.0 02:07:56 11° NNW 02:08:43 11° NNW 02:10:17 10° N
CZ-4C R/B 3.3 02:08:59 63° ESE 02:09:20 68° ENE 02:12:55 10° N
Cosmos 2360 4.5 02:18:33 43° W 02:19:47 50° WNW 02:25:23 10° NNE
Meteor 1-4 Rocket 4.1 02:18:18 13° SSE 02:20:54 33° E 02:24:06 10° NNE
Cosmos 2082 4.2 02:16:05 10° NW 02:26:40 10° S 02:20:23 37° W
USA 305 3.5 02:22:42 40° NW 02:23:16 43° NNW 02:27:20 10° NE
Meteor 1-26 Rocket 4.4 02:24:04 41° WSW 02:25:03 45° WNW 02:30:14 10° N
USA 306 3.6 02:26:37 37° NW 02:27:21 41° NNW 02:31:24 10° NE
CZ-2D R/B 4.4 02:25:21 10° N 02:28:45 32° WNW 02:28:45 32° WNW
X-37B 0.9 02:29:08 56° NNW 02:29:16 57° N 02:32:25 10° E
Cosmos 1339 Rocket 4.4 02:24:05 13° S 02:29:47 81° W 02:36:03 10° N
SJ 16-02 1.9 02:27:12 10° NNW 02:31:33 59° ENE 02:35:53 10° SSE
Cosmos 389 Rocket 3.3 02:32:18 35° NW 02:32:18 35° NW 02:34:57 10° N
Cosmos 1697 Rocket 3.6 02:32:34 28° WNW 02:33:42 30° NW 02:38:37 10° N
PSLV R/B 3.5 02:29:57 10° NNE 02:34:10 82° ESE 02:37:19 17° S
H-2A R/B 2.0 02:30:46 10° S 02:35:03 65° WSW 02:39:29 10° NNW
ASTEX 1 4.0 02:30:57 10° N 02:35:31 37° WNW 02:36:23 34° W
Cosmos 192 4.4 02:35:08 35° SW 02:37:03 59° WNW 02:41:56 10° NNE
Cosmos 1980 Rocket 2.5 02:35:19 32° WSW 02:37:32 50° WNW 02:43:04 10° NNE
USA 267 4.1 02:32:26 10° NE 02:38:21 38° NNW 02:42:17 20° WNW
ERS-2 2.1 02:34:51 10° SSE 02:38:29 81° ENE 02:42:11 10° NNW
NOSS 3-3 (A) 3.8 02:35:08 25° SW 02:38:39 90° E 02:45:07 10° NE
NOSS 3-3 (C) 3.8 02:35:18 25° SW 02:38:46 89° ESE 02:45:12 10° NE
Iridium 2 4.5 02:39:48 33° WNW 02:39:48 33° WNW 02:42:45 10° NNW
CZ-2C R/B 2.5 02:34:23 10° NNE 02:39:31 86° ESE 02:44:43 10° SSW
PAYLOAD A 3.7 02:37:35 10° N 02:42:18 79° WNW 02:46:22 14° SSW
Meteor 1-10 Rocket 4.3 02:36:35 10° S 02:42:19 88° E 02:48:13 10° N
Cosmos 2322 Rocket 3.2 02:37:35 10° S 02:42:56 45° ESE 02:48:20 10° NE
Cosmos 2263 Rocket 2.2 02:42:10 10° NNW 02:47:51 88° ENE 02:53:31 10° SSE
Cosmos 990 Rocket 4.4 02:42:56 10° NNW 02:48:06 64° ENE 02:53:16 10° SSE
Cosmos 468 Rocket 4.2 02:44:10 10° S 02:49:26 72° ESE 02:54:43 10° NNE
SL-8 R/B 3.8 02:46:01 19° WNW 02:49:28 75° NNE 02:54:15 10° ESE
SL-16 R/B 2.6 02:44:55 10° S 02:50:30 64° ESE 02:56:07 10° NNE
USA 307 4.1 02:52:25 21° WNW 02:54:21 31° NNW 02:58:10 10° NE
Cosmos 1812 2.8 02:52:18 21° SSW 02:54:39 54° W 02:58:27 10° N
ATLAS 2AS CENTAUR R/B 4.2 02:47:45 10° NNW 02:54:47 39° NE 03:01:17 10° ESE
USA 308 4.1 02:55:23 20° WNW 02:57:28 30° NNW 03:01:16 10° NE
Cosmos 2227 4.1 02:53:08 10° NNW 02:58:47 71° WSW 03:04:21 10° SSE
SL-4 R/B 3.5 02:57:22 11° SSW 03:01:22 39° SE 03:05:50 10° ENE
Cosmos 1500 3.6 02:58:45 10° NNW 03:02:21 38° W 03:05:54 10° SSW
Landsat 5 4.3 02:59:12 10° SSW 03:03:14 32° W 03:07:18 10° NNW
Meteor 2-6 Rocket 4.5 02:59:56 10° SSW 03:05:21 49° WNW 03:10:59 10° N
Cosmos 1666 2.6 03:04:30 10° N 03:08:20 78° W 03:12:07 10° S
Meteor 1-5 Rocket 4.2 03:03:55 10° NNW 03:09:02 50° W 03:14:12 10° SSW
ERBS 2.3 03:09:57 21° WSW 03:12:03 67° NW 03:15:25 10° NE
USA 234 3.7 03:07:17 10° SSE 03:13:14 37° SW 03:19:14 10° WNW
ADEOS Rocket 3.2 03:06:33 10° S 03:13:30 67° WSW 03:19:47 10° NNW
CZ-4B R/B 1.1 03:10:51 10° S 03:13:57 68° WSW 03:17:08 10° NNW
Cosmos 2173 Rocket 4.2 03:09:00 10° N 03:15:21 79° E 03:21:43 10° S
Lacrosse 5 3.3 03:12:00 13° WNW 03:15:30 26° NNW 03:19:44 10° NNE
Cosmos 1898 Rocket 3.5 03:11:10 10° NNW 03:16:25 80° WSW 03:21:42 10° SSE
deb Chang Zheng 4 3.5 03:15:49 10° N 03:20:06 70° WNW 03:24:21 10° SSW
USA 276 4.1 03:21:54 10° NW 03:24:33 23° N 03:27:12 10° NE
CZ-4B R/B 3.8 03:21:31 10° NNE 03:25:05 45° E 03:28:32 10° S
CZ-4B R/B 4.1 03:20:55 10° NNE 03:25:14 86° ESE 03:29:40 10° SSW
USA 32 4.1 03:21:17 10° NNW 03:26:25 54° W 03:31:30 10° SSW
Cosmos 44 4.4 03:24:49 13° W 03:27:53 25° NW 03:31:46 10° NNE
ADEOS 3.6 03:23:19 10° N 03:28:29 64° WNW 03:33:37 10° SSW
Cosmos 1707 Rocket 3.8 03:24:31 10° SSW 03:28:42 47° WNW 03:32:54 10° N
Cosmos 858 Rocket 4.5 03:24:03 10° NNW 03:29:17 86° WSW 03:34:28 10° SSE
Cosmos 921 Rocket 4.2 03:27:48 12° WSW 03:30:45 23° WNW 03:34:07 10° N
IDEFIX/ARIANE 42P 4.5 03:29:48 10° NNW 03:31:55 12° WNW 03:34:01 10° W
Meteor 1-11 Rocket 4.0 03:28:38 10° NNW 03:34:12 49° W 03:39:37 10° SSW
SAR-Lupe-4 3.8 03:32:09 10° S 03:35:36 44° W 03:39:04 10° NNW
CZ-3B R/B 4.4 03:32:59 10° NW 03:37:08 32° NNE 03:50:57 10° ENE
PSLV R/B 4.0 03:36:04 10° SSE 03:40:06 83° ENE 03:44:11 10° NNW
Okean 1 4.2 03:36:12 10° S 03:40:09 54° E 03:44:07 10° NNE
Cosmos 1743 3.2 03:36:50 10° N 03:40:38 67° E 03:44:24 10° SSE
Intercosmos 25 3.4 03:38:48 10° S 03:43:29 87° E 03:46:52 10° N
Cosmos 2016 Rocket 4.0 03:39:18 10° N 03:45:28 89° E 03:51:34 10° S
Cosmos 1937 Rocket 3.5 03:40:26 10° NNW 03:45:30 61° WSW 03:50:33 10° S
SKYMED 2 3.6 03:41:26 10° SSE 03:45:46 89° ENE 03:50:08 10° NNW
Meteor 1-27 Rocket 4.2 03:41:13 10° SSW 03:46:53 46° WNW 03:52:35 10° N
ALOS 2.5 03:43:24 10° N 03:47:56 51° WNW 03:52:26 10° SSW
Cosmos 1733 Rocket 3.2 03:44:41 10° NNW 03:48:55 52° W 03:53:06 10° S
Cosmos 1814 Rocket 4.1 03:45:04 10° SSW 03:50:15 89° ESE 03:55:33 10° NNE
